Tracking 19827 objects as of 22-Aug-2019
HD Live streaming from Space Station
objects crossing your sky now

ATLAS 2 CENTAUR R/B

Track ATLAS 2 CENTAUR R/B now!
10-day predictions


NORAD ID: 23468
Int'l Code: 1995-003B
Perigee: 286.8 km
Apogee: 20,562.3 km
Inclination: 26.8 °
Period: 361.0 minutes
Semi major axis: 16795 km
RCS: 17.7119 m2 (large)
Launch date: January 29, 1995
Source: United States (US)
Launch site: AIR FORCE EASTERN TEST RANGE (AFETR)

Note: This is a ROCKET BODY
aabbcc
Your satellite tracking list
Your tracking list is empty




NASA's NSSDC Master Catalog

Two Line Element Set (TLE):
1 23468U 95003B   19233.47516167 +.00001504 +00000-0 +31252-3 0  9991
2 23468 026.7586 088.3531 6035980 225.5768 065.5766 03.98851005313183
Source of the keplerian elements: AFSPC